[[{"header":{"parameterUnit":"m.s-1","parameterCategory":1,"la1":30.2991,"la2":30.254,"lo1":-89.0895,"lo2":-89.0444,"dy":0.0017,"dx":0.0017,"nx":28,"ny":28,"refTime":"2025-09-04T09:00:00:Z","depth":0,"parameterNumber":2,"parameterNumberName":"U-component_of_WINDS"},"data":[0,0,0,0,0,0,0,0,0,0,0,0,0,0,0,0,0,0,0,0,0,0,0,0,0,0,0,0,0,0,0,0,0,0,0,0,0,0,0,0,0,0,0,0,0,0,0,0,0,0,0,0,0,0,0,0,0,0,0.0008,0.0007,0,-0.0006,-0.0007,-0.0007,0.0009,0.001,0.001,0.0011,-0.0006,-0.0007,-0.0008,0,0,0,0,0,0,0,0,0,0,0,0,0,0.0045,0.0044,0.0008,0.0007,0.0007,-0.0006,-0.0007,-0.0007,0.0009,0.001,0.001,0.0011,-0.0006,-0.0007,-0.0008,0,0,0,0,0,0,0,0,0,0,0,0,0,0.003,0.0044,0.0008,0.0014,0.0014,-0.0006,-0.0007,-0.0007,0.0009,0.001,0.0011,0.0011,-0.0005,-0.0007,-0.0008,-0.0036,0,0,-0.0013,-0.0014,0,0,0,0,0,0,0,0,0.003,0.0028,0.0013,0.0013,0.0014,0.0004,0.0,-0.0017,0.0008,0.0011,0.0011,0.0012,-0.0004,-0.0005,-0.001,-0.0037,-0.0037,-0.0013,-0.0014,-0.0015,-0.0015,0,0,0,0,0,0,0,0.0032,0.0029,0.0002,0.0013,0.0013,0.0016,0.0015,-0.0003,-0.0002,0.0011,0.0012,0.001,-0.0003,-0.0009,-0.001,-0.0038,-0.0013,-0.0014,-0.0015,-0.0016,-0.009,-0.0091,0,0,0,0,0,0,0.0032,0.003,0.0002,0.0002,0.0024,0.0014,0.0013,0.0006,-0.0001,-0.0001,0.0009,0.0011,-0.0006,-0.0008,-0.0011,-0.0045,-0.0015,-0.0016,-0.0017,-0.0089,-0.009,-0.0091,0,0,0,0,0,0,0.0033,0.003,0.0003,0.0016,0.0013,0.0013,0.0005,0.0005,0.0,-0.0002,-0.0002,0.0004,-0.0006,-0.0009,-0.003,-0.0046,-0.0017,-0.0018,-0.0088,-0.0089,-0.0091,-0.0113,0,0,0,0,0,0,0.0034,0.003,0.002,0.0016,0.0012,-0.0015,0.0004,0.0004,-0.0002,-0.0,-0.0007,-0.0008,-0.0005,-0.0028,-0.0032,-0.0047,-0.0019,-0.0086,-0.0089,-0.009,-0.0111,-0.0116,-0.0119,0,0,0,0,0,0.0035,0.0014,0.002,0.0016,0.0,-0.0016,-0.0018,-0.0014,-0.0003,-0.0014,-0.0016,-0.0007,-0.0043,-0.003,-0.0034,-0.005,-0.0085,-0.0088,-0.009,-0.011,-0.0115,-0.0119,0,0,0,0,0,0,0.0017,0.0014,0.002,-0.0003,-0.0009,-0.0013,-0.0026,-0.002,-0.003,-0.0028,-0.0023,-0.0025,-0.0048,-0.0051,-0.0037,-0.0079,-0.0063,-0.0066,-0.0076,-0.0081,-0.0085,-0.0084,-0.0021,0,0,0,0,0,0.001,-0.0002,-0.0004,-0.0024,-0.0027,-0.0026,-0.0033,-0.003,-0.0036,-0.0039,-0.0043,-0.005,-0.0063,-0.0072,-0.0084,-0.0111,-0.0114,-0.0125,-0.0128,-0.0132,-0.0135,-0.0152,-0.0157,-0.0099,-0.0099,-0.0099,0,0,-0.0004,-0.0007,-0.0015,-0.0028,-0.0032,-0.0046,-0.0029,-0.0044,-0.0054,-0.0042,-0.0063,-0.0065,-0.0074,-0.0099,-0.011,-0.0102,-0.0152,-0.0135,-0.0137,-0.0139,-0.0155,-0.0161,-0.0165,-0.0101,-0.0101,-0.01,0,0,-0.0037,-0.004,-0.0058,-0.0063,-0.007,-0.0069,-0.0073,-0.0078,-0.008,-0.01,-0.0092,-0.0105,-0.0127,-0.0134,-0.014,-0.0177,-0.0171,-0.0181,-0.0202,-0.0219,-0.0223,-0.0227,-0.0243,-0.0248,-0.0184,-0.0184,-0.0184,0,-0.0055,-0.0074,-0.0068,-0.0084,-0.0091,-0.0079,-0.0099,-0.0104,-0.0115,-0.012,-0.0111,-0.0139,-0.0144,-0.0172,-0.0181,-0.0185,-0.0192,-0.0181,-0.0223,-0.0227,-0.0231,-0.0245,-0.0251,-0.0185,-0.0185,-0.0185,-0.0185,0,-0.0096,-0.0109,-0.0123,-0.0134,-0.0142,-0.0159,-0.0157,-0.0166,-0.0162,-0.0163,-0.0185,-0.0191,-0.0204,-0.021,-0.0206,-0.0238,-0.0233,-0.0223,-0.0207,-0.0238,-0.0251,-0.0257,-0.0187,-0.0187,-0.0187,-0.0186,0,0,-0.0142,-0.0149,-0.0154,-0.016,-0.0167,-0.0178,-0.0195,-0.0208,-0.0217,-0.0225,-0.0241,-0.026,-0.0252,-0.0259,-0.0256,-0.027,-0.0302,-0.0259,-0.0259,-0.0269,-0.034,-0.0348,-0.0354,-0.0297,-0.0298,-0.0299,-0.034,0,-0.0176,-0.0206,-0.0202,-0.0231,-0.0245,-0.0235,-0.025,-0.0257,-0.0258,-0.0271,-0.0273,-0.0288,-0.0274,-0.0279,-0.0292,-0.0295,-0.0316,-0.0292,-0.0314,-0.0315,-0.0314,-0.0361,-0.037,-0.0408,-0.0345,-0.0345,-0.0346,0,-0.0221,-0.0231,-0.0261,-0.0267,-0.0273,-0.0287,-0.0299,-0.0311,-0.0319,-0.032,-0.0328,-0.0323,-0.0342,-0.0325,-0.0353,-0.0336,-0.0345,-0.0348,-0.0349,-0.0353,-0.0333,-0.0368,-0.042,-0.0426,-0.0354,-0.0353,-0.0353,0,-0.0254,-0.0274,-0.0296,-0.03,-0.0308,-0.0318,-0.0322,-0.0329,-0.0338,-0.0349,-0.0355,-0.0368,-0.0376,-0.0387,-0.0386,-0.0373,-0.0415,-0.0397,-0.0417,-0.0417,-0.0428,-0.0427,-0.0484,-0.043,-0.043,-0.043,-0.043,0,-0.0294,-0.0314,-0.0311,-0.0324,-0.0346,-0.0342,-0.0364,-0.0367,-0.0373,-0.0388,-0.038,-0.0394,-0.0391,-0.0406,-0.0406,-0.043,-0.0433,-0.0435,-0.0435,-0.0437,-0.0437,-0.0444,-0.0442,-0.0432,-0.0431,-0.0431,-0.0431,0,-0.0336,-0.0334,-0.0357,-0.0362,-0.0364,-0.038,-0.0385,-0.0399,-0.0399,-0.0418,-0.0423,-0.0424,-0.0441,-0.0441,-0.046,-0.046,-0.0491,-0.0487,-0.0488,-0.0488,-0.0509,-0.0508,-0.0573,-0.0583,-0.0521,-0.0522,-0.0522,0,-0.0362,-0.0377,-0.0384,-0.0393,-0.0397,-0.0412,-0.0421,-0.0417,-0.0426,-0.0438,-0.045,-0.0466,-0.0479,-0.0507,-0.0511,-0.0527,-0.0524,-0.0546,-0.0526,-0.0528,-0.0527,-0.0527,-0.0529,-0.055,-0.0551,-0.0552,-0.0552,0,-0.0411,-0.0409,-0.0422,-0.0434,-0.0445,-0.0455,-0.0464,-0.0472,-0.0469,-0.0481,-0.0498,-0.0508,-0.0528,-0.0545,-0.056,-0.0565,-0.056,-0.0558,-0.0564,-0.0567,-0.0568,-0.057,-0.0501,-0.0557,-0.0556,-0.0556,-0.0556,-0.0556,-0.0447,-0.046,-0.0468,-0.0482,-0.0489,-0.0497,-0.0511,-0.0513,-0.0527,-0.0543,-0.054,-0.0559,-0.0569,-0.0588,-0.0595,-0.0612,-0.0604,-0.0612,-0.0614,-0.0617,-0.062,-0.0564,-0.0614,-0.0614,-0.0614,-0.0614,-0.0613,0,-0.0497,-0.0501,-0.0514,-0.0527,-0.0539,-0.0531,-0.0541,-0.0552,-0.0569,-0.0578,-0.0591,-0.0611,-0.0628,-0.0633,-0.065,-0.0662,-0.066,-0.0667,-0.0667,-0.0669,-0.0625,-0.0619,-0.0668,-0.0668,-0.0668,-0.0668,-0.0668,-0.0668,-0.0524,-0.0547,-0.0547,-0.0574,-0.0578,-0.0596,-0.0603,-0.0612,-0.0619,-0.0642,-0.0656,-0.0659,-0.0667,-0.0684,-0.07,-0.0701,-0.0708,-0.0717,-0.0717,-0.0677,-0.0671,-0.0666,-0.0661,-0.0718,-0.0718,-0.076,-0.076,-0.0761]},{"header":{"parameterUnit":"m.s-1","parameterCategory":1,"la1":30.2991,"la2":30.254,"lo1":-89.0895,"lo2":-89.0444,"dy":0.0017,"dx":0.0017,"nx":28,"ny":28,"refTime":"2025-09-04T09:00:00:Z","depth":0,"parameterNumber":3,"parameterNumberName":"V-component_of_WINDS"},"data":[0,0,0,0,0,0,0,0,0,0,0,0,0,0,0,0,0,0,0,0,0,0,0,0,0,0,0,0,0,0,0,0,0,0,0,0,0,0,0,0,0,0,0,0,0,0,0,0,0,0,0,0,0,0,0,0,0,0,3.1451,3.1451,0,3.146,3.146,3.1461,3.1422,3.1421,3.142,3.1419,3.1428,3.1429,3.143,0,0,0,0,0,0,0,0,0,0,0,0,0,3.1398,3.1399,3.1451,3.1451,3.1451,3.146,3.146,3.1461,3.1422,3.1421,3.142,3.1418,3.1427,3.1429,3.143,0,0,0,0,0,0,0,0,0,0,0,0,0,3.1416,3.14,3.1451,3.1433,3.1432,3.146,3.146,3.1461,3.1423,3.1421,3.1419,3.1418,3.1427,3.1429,3.1431,3.1476,0,0,3.1436,3.1437,0,0,0,0,0,0,0,0,3.1415,3.1418,3.1436,3.1435,3.1433,3.1438,3.1445,3.1466,3.1423,3.1426,3.1419,3.1417,3.1433,3.1434,3.1439,3.1477,3.1477,3.1437,3.1438,3.1439,3.1439,0,0,0,0,0,0,0,3.1414,3.1417,3.1455,3.1436,3.1434,3.1424,3.1425,3.1449,3.1439,3.1426,3.1423,3.1425,3.1431,3.1438,3.1439,3.1477,3.1437,3.1438,3.1439,3.144,3.155,3.1552,0,0,0,0,0,0,3.1415,3.1416,3.1454,3.1455,3.142,3.1427,3.1427,3.1438,3.1438,3.1437,3.1426,3.1423,3.1435,3.1437,3.1439,3.1491,3.1439,3.144,3.1441,3.1548,3.155,3.1552,0,0,0,0,0,0,3.1414,3.1419,3.1454,3.1435,3.1439,3.1429,3.1442,3.1439,3.1445,3.1439,3.1436,3.1434,3.1434,3.1437,3.1467,3.1491,3.1441,3.1443,3.1546,3.1549,3.1551,3.1595,0,0,0,0,0,0,3.1413,3.1419,3.1436,3.1436,3.144,3.1482,3.1444,3.1441,3.1449,3.1445,3.1446,3.1444,3.1433,3.1464,3.1469,3.1492,3.1445,3.1544,3.1547,3.1551,3.1592,3.1599,3.1606,0,0,0,0,0,3.1411,3.1449,3.1437,3.1442,3.1462,3.1483,3.1486,3.1472,3.1451,3.1468,3.1464,3.1444,3.1488,3.1468,3.1472,3.1497,3.1542,3.1546,3.155,3.1589,3.1598,3.1606,0,0,0,0,0,0,3.1453,3.1448,3.1436,3.1475,3.148,3.1477,3.1498,3.1482,3.1493,3.1489,3.1471,3.1472,3.1504,3.1504,3.1482,3.154,3.1511,3.1517,3.1539,3.1547,3.1554,3.1553,3.1446,0,0,0,0,0,3.1467,3.1485,3.148,3.1515,3.1518,3.1508,3.1517,3.1506,3.151,3.1512,3.1509,3.1514,3.1528,3.1538,3.1552,3.1592,3.1591,3.1611,3.1618,3.1624,3.1628,3.1647,3.1656,3.1565,3.1565,3.1565,0,0,3.1495,3.1495,3.1508,3.1523,3.1526,3.1544,3.151,3.1531,3.1544,3.1515,3.1542,3.1541,3.1545,3.158,3.1595,3.1581,3.1653,3.1629,3.1634,3.1635,3.1652,3.1661,3.1668,3.1568,3.1568,3.1567,0,0,3.1556,3.1559,3.1587,3.159,3.1594,3.1587,3.1594,3.1593,3.1591,3.1618,3.1596,3.1611,3.1638,3.164,3.1645,3.1706,3.1688,3.1711,3.1747,3.1766,3.1773,3.1779,3.1798,3.1806,3.1716,3.1716,3.1716,0,3.1591,3.1618,3.1603,3.1625,3.1632,3.1607,3.1634,3.1638,3.1646,3.1651,3.1634,3.1665,3.1666,3.17,3.1715,3.1721,3.1727,3.171,3.1773,3.1779,3.1784,3.1803,3.181,3.1718,3.1718,3.1718,3.1718,0,3.1659,3.1678,3.17,3.1708,3.1718,3.1743,3.1731,3.1742,3.173,3.1724,3.1752,3.1752,3.1764,3.1772,3.1761,3.1804,3.1794,3.1776,3.1746,3.1796,3.1813,3.182,3.1722,3.1721,3.172,3.172,0,0,3.1746,3.1745,3.1753,3.1755,3.1758,3.1772,3.1795,3.1806,3.1815,3.1822,3.1839,3.1861,3.1844,3.185,3.1839,3.1856,3.1901,3.1835,3.1835,3.1845,3.1946,3.1958,3.1966,3.189,3.1891,3.1892,3.1945,0,3.1804,3.1843,3.183,3.1869,3.1885,3.1861,3.1881,3.1884,3.1879,3.1892,3.1887,3.1901,3.1879,3.1881,3.1897,3.1892,3.1921,3.1888,3.1904,3.1905,3.1902,3.1976,3.1989,3.2038,3.1952,3.1953,3.1954,0,3.1876,3.1885,3.1925,3.1923,3.1929,3.1947,3.1955,3.1968,3.1971,3.1966,3.1972,3.1957,3.1979,3.1951,3.1979,3.1957,3.1963,3.1962,3.1963,3.1962,3.1931,3.1974,3.2054,3.2061,3.1964,3.1963,3.1963,0,3.1932,3.1954,3.1981,3.1984,3.1982,3.1995,3.1995,3.1996,3.2003,3.2011,3.2014,3.2025,3.203,3.2038,3.2026,3.2007,3.2055,3.2026,3.205,3.205,3.206,3.2059,3.2139,3.2068,3.2068,3.2067,3.2067,0,3.1997,3.2022,3.2005,3.2021,3.2048,3.2033,3.206,3.2058,3.2058,3.2073,3.2054,3.2067,3.2052,3.2064,3.2055,3.2078,3.2082,3.2077,3.2074,3.2078,3.2078,3.208,3.2075,3.2069,3.2069,3.2069,3.2068,0,3.2063,3.2054,3.208,3.2076,3.2076,3.2096,3.2092,3.2106,3.21,3.2118,3.2122,3.2112,3.2125,3.2115,3.2128,3.2122,3.2152,3.2146,3.2151,3.2148,3.2172,3.2169,3.2254,3.2263,3.2188,3.2189,3.219,0,3.2104,3.2122,3.212,3.2128,3.2129,3.2143,3.2149,3.2135,3.2143,3.2146,3.216,3.2171,3.2179,3.2202,3.2195,3.2205,3.2197,3.2226,3.2198,3.22,3.2194,3.2192,3.2193,3.2231,3.2232,3.2233,3.2233,0,3.2176,3.217,3.218,3.2188,3.2197,3.2203,3.2207,3.2215,3.22,3.221,3.2223,3.2229,3.2242,3.2253,3.2261,3.226,3.2244,3.2242,3.2248,3.225,3.2252,3.2249,3.2164,3.224,3.2239,3.2239,3.2238,3.2238,3.2229,3.2243,3.2243,3.2255,3.2256,3.2261,3.2273,3.2268,3.2279,3.2288,3.2279,3.2294,3.2295,3.2303,3.2304,3.2316,3.2303,3.2312,3.2314,3.2316,3.2318,3.2252,3.2317,3.2317,3.2317,3.2317,3.2317,0,3.2297,3.2296,3.2307,3.2313,3.2322,3.2306,3.231,3.2318,3.2332,3.2334,3.2342,3.2356,3.2367,3.2362,3.237,3.238,3.2373,3.2383,3.2381,3.238,3.2329,3.2323,3.2388,3.2388,3.2388,3.2388,3.2388,3.2388,3.2334,3.2357,3.2351,3.2373,3.2372,3.2386,3.2389,3.2393,3.2394,3.241,3.2419,3.2415,3.2414,3.2422,3.2431,3.2429,3.2432,3.2444,3.2439,3.2391,3.2384,3.2377,3.2371,3.2446,3.2446,3.2489,3.2489,3.249]}]]